Date String (YYYY-MM-DD hh:mm:ss) UTC,Instrument flags,absolute air pressure of the measurement (hPa),sample flow rate (lpm),inlet stack bypass flow (lpm),air temperature of the measurement (°C),ambient temperature measured by the external sensor (°C),aerosol sample conditioner tube jacket temperature (°C),OPC LED temperature (°C),internal box temperature (°C),relative humidity of the measurement (%),span deviation,mass concentration of particles derived from Lorenz-Mie calculation of OPC scattering (μg/m³),mass concentration of particles derived from Lorenz-Mie calculation of OPC scattering (μg/m³),mass concentration of particles derived from Lorenz-Mie calculation of OPC scattering (μg/m³)
DateTimeUTC,F1_M11,P_M11,Q1_M11,Q2_M11,T1_M11,T2_M11,T3_M11,T4_M11,T5_M11,U1_M11,ZSPAN_M11,X0_M11,X2_M11,X1_M11
2024-01-04 14:00:00,SystemResetWarning,0824.4,5.01,000.00,019.6,018.6,000.0,028.0,020.9,14.3,0000.0,0012.73,0007.53,0006.82
2024-01-04 14:01:00,SystemResetWarning,0824.4,5.00,000.00,019.6,018.6,000.0,028.0,020.9,14.4,0000.0,0013.05,0007.51,0006.83
2024-01-04 14:02:00,SystemResetWarning,0824.4,5.00,000.00,019.6,018.6,000.0,028.0,020.9,14.4,0000.0,0012.71,0007.50,0006.86
2024-01-04 14:03:00,SystemResetWarning,0824.4,5.01,000.00,019.6,018.6,000.0,028.0,020.9,14.4,0000.0,0012.55,0007.46,0006.89
2024-01-04 14:04:00,SystemResetWarning,0824.4,5.00,000.00,019.6,018.6,000.0,028.0,020.9,14.4,0000.0,0012.56,0007.41,0006.89
2024-01-04 14:05:00,SystemResetWarning,0824.4,5.00,000.00,019.6,018.6,000.0,028.0,020.9,14.4,0000.2,0012.93,0007.42,0006.90
2024-01-04 14:06:00,SystemResetWarning,0824.4,5.00,000.00,019.6,018.6,000.0,028.0,020.9,14.4,-000.0,0012.97,0007.43,0006.90
2024-01-04 14:07:00,SystemResetWarning,0824.4,5.00,000.00,019.6,018.6,000.0,028.0,020.9,14.4,-000.5,0012.87,0007.44,0006.90
2024-01-04 14:08:00,SystemResetWarning,0824.4,5.00,000.00,019.6,018.6,000.0,028.0,020.9,14.4,-000.3,0013.16,0007.45,0006.90
2024-01-04 14:09:00,SystemResetWarning,0824.3,5.00,000.00,019.6,018.6,000.0,028.0,020.9,14.5,-000.3,0013.47,0007.47,0006.90
2024-01-04 14:10:00,SystemResetWarning,0824.4,5.00,000.00,019.6,018.6,000.0,028.0,020.9,14.5,-000.0,0014.07,0007.47,0006.89
2024-01-04 14:11:00,SystemResetWarning,0824.4,5.00,000.00,019.6,018.7,000.0,028.0,020.9,14.5,0000.5,0013.60,0007.45,0006.87
2024-01-04 14:12:00,SystemResetWarning,0824.4,4.99,000.00,019.6,018.7,000.0,028.0,020.9,14.5,0000.7,0013.30,0007.50,0006.86
2024-01-04 14:13:00,SystemResetWarning,0824.4,4.99,000.00,019.6,018.7,000.0,028.0,020.9,14.5,0000.8,0013.00,0007.48,0006.83
2024-01-04 14:14:00,SystemResetWarning,0824.4,5.00,000.00,019.6,018.7,000.0,027.9,020.9,14.5,0000.8,0012.66,0007.46,0006.80
2024-01-04 14:15:00,SystemResetWarning,0824.4,5.01,000.00,019.5,018.7,000.0,027.9,020.9,14.5,0001.2,0012.51,0007.45,0006.78
2024-01-04 14:16:00,SystemResetWarning,0824.4,5.01,000.00,019.5,018.7,000.0,027.9,020.9,14.5,0001.7,0012.34,0007.42,0006.74
2024-01-04 14:17:00,SystemResetWarning,0824.4,4.99,000.00,019.6,018.7,000.0,027.9,020.9,14.5,0001.9,0012.36,0007.39,0006.72
2024-01-04 14:18:00,SystemResetWarning,0824.4,4.99,000.00,019.6,018.7,000.0,027.9,020.9,14.5,0002.3,0012.39,0007.36,0006.68
2024-01-04 14:19:00,SystemResetWarning,0824.5,4.99,000.00,019.5,018.7,000.0,027.9,020.8,14.6,0002.5,0012.07,0007.29,0006.63
2024-01-04 14:20:00,SystemResetWarning,0824.5,5.00,000.00,019.5,018.7,000.0,027.9,020.8,14.6,0002.5,0011.82,0007.23,0006.59
2024-01-04 14:21:00,SystemResetWarning,0824.5,5.01,000.00,019.5,018.7,000.0,027.9,020.8,14.6,0002.2,0011.12,0007.18,0006.54
2024-01-04 14:22:00,SystemResetWarning,0824.4,5.00,000.00,019.5,018.7,000.0,027.9,020.7,14.6,0001.8,0010.83,0007.10,0006.49
2024-01-04 14:23:00,SystemResetWarning,0824.4,5.01,000.00,019.5,018.7,000.0,027.9,020.7,14.6,0001.7,0010.71,0007.01,0006.45
2024-01-04 14:24:00,SystemResetWarning,0824.4,5.00,000.00,019.5,018.7,000.0,027.9,020.8,14.6,0001.7,0011.47,0006.98,0006.40
2024-01-04 14:25:00,SystemResetWarning,0824.4,5.00,000.00,019.5,018.7,000.0,027.9,020.8,14.6,0002.0,0011.56,0006.96,0006.35
2024-01-04 14:26:00,SystemResetWarning,0824.4,5.00,000.00,019.5,018.7,000.0,027.9,020.7,14.6,0001.7,0011.74,0006.91,0006.30
2024-01-04 14:27:00,SystemResetWarning,0824.4,4.99,000.00,019.5,018.7,000.0,027.9,020.8,14.6,0001.5,0011.81,0006.88,0006.27
2024-01-04 14:28:00,SystemResetWarning,0824.4,5.00,000.00,019.5,018.7,000.0,027.9,020.8,14.6,0001.7,0011.61,0006.85,0006.25
2024-01-04 14:29:00,SystemResetWarning,0824.5,5.01,000.00,019.5,018.7,000.0,027.9,020.8,14.6,0001.8,0011.98,0006.83,0006.23
2024-01-04 14:30:00,SystemResetWarning,0824.5,5.01,000.00,019.5,018.7,000.0,027.9,020.8,14.6,0001.3,0012.58,0006.81,0006.23
2024-01-04 14:31:00,SystemResetWarning,0824.5,5.01,000.00,019.5,018.7,000.0,027.9,020.8,14.6,0000.3,0012.79,0006.83,0006.24
2024-01-04 14:32:00,SystemResetWarning,0824.5,5.01,000.00,019.5,018.7,000.0,027.9,020.8,14.5,0000.0,0012.89,0006.82,0006.24
2024-01-04 14:33:00,SystemResetWarning,0824.5,5.00,000.00,019.5,018.8,000.0,027.9,020.8,14.5,0001.1,0013.12,0006.83,0006.26
2024-01-04 14:34:00,SystemResetWarning,0824.5,5.00,000.00,019.5,018.8,000.0,027.8,020.8,14.5,0002.5,0013.22,0006.89,0006.29
2024-01-04 14:35:00,SystemResetWarning,0824.4,5.00,000.00,019.5,018.8,000.0,027.8,020.8,14.5,0002.2,0012.57,0006.92,0006.32
2024-01-04 14:36:00,SystemResetWarning,0824.4,5.00,000.00,019.5,018.8,000.0,027.8,020.8,14.4,0002.2,0012.97,0006.96,0006.36
2024-01-04 14:37:00,SystemResetWarning,0824.4,5.00,000.00,019.5,018.8,000.0,027.8,020.8,14.4,0002.2,0013.15,0007.04,0006.40
2024-01-04 14:38:00,SystemResetWarning,0824.3,5.00,000.00,019.5,018.7,000.0,027.8,020.8,14.4,0002.5,0013.23,0007.08,0006.43
2024-01-04 14:39:00,SystemResetWarning,0824.4,5.00,000.00,019.5,018.7,000.0,027.8,020.8,14.4,0001.9,0014.00,0007.13,0006.47
2024-01-04 14:40:00,SystemResetWarning,0824.4,5.00,000.00,019.5,018.7,000.0,027.8,020.8,14.4,0001.4,0013.91,0007.15,0006.50
2024-01-04 14:41:00,SystemResetWarning,0824.4,5.00,000.00,019.5,018.8,000.0,027.8,020.8,14.4,0000.8,0013.46,0007.19,0006.52
2024-01-04 14:42:00,SystemResetWarning,0824.4,4.99,000.00,019.5,018.8,000.0,027.8,020.8,14.4,0000.9,0013.25,0007.22,0006.54
2024-01-04 14:43:00,SystemResetWarning,0824.4,4.99,000.00,019.5,018.8,000.0,027.8,020.8,14.4,0000.7,0013.35,0007.27,0006.57
2024-01-04 14:44:00,SystemResetWarning,0824.4,5.00,000.00,019.5,018.8,000.0,027.8,020.8,14.4,0000.9,0013.22,0007.29,0006.58
2024-01-04 14:45:00,SystemResetWarning,0824.4,5.00,000.00,019.5,018.8,000.0,027.8,020.8,14.4,0000.9,0013.13,0007.27,0006.59
2024-01-04 14:46:00,SystemResetWarning,0824.5,5.00,000.00,019.5,018.8,000.0,027.8,020.8,14.4,0001.0,0012.95,0007.22,0006.59
2024-01-04 14:47:00,SystemResetWarning,0824.5,5.00,000.00,019.5,018.7,000.0,027.8,020.8,14.4,0001.0,0012.60,0007.19,0006.58
2024-01-04 14:48:00,SystemResetWarning,0824.6,5.00,000.00,019.5,018.7,000.0,027.8,020.7,14.4,0001.2,0012.26,0007.16,0006.58
2024-01-04 14:49:00,SystemResetWarning,0824.6,5.01,000.00,019.4,018.7,000.0,027.8,020.7,14.4,0001.3,0012.42,0007.15,0006.57
2024-01-04 14:50:00,SystemResetWarning,0824.7,5.00,000.00,019.4,018.7,000.0,027.8,020.7,14.5,0001.7,0011.66,0007.14,0006.55
2024-01-04 14:51:00,SystemResetWarning,0824.7,5.00,000.00,019.4,018.7,000.0,027.8,020.6,14.5,0002.0,0011.20,0007.13,0006.54
2024-01-04 14:52:00,SystemResetWarning,0824.6,5.00,000.00,019.4,018.7,000.0,027.8,020.6,14.5,0001.8,0011.39,0007.13,0006.54
2024-01-04 14:53:00,SystemResetWarning,0824.5,5.00,000.00,019.4,018.7,000.0,027.8,020.6,14.5,0001.6,0011.72,0007.12,0006.53
2024-01-04 14:54:00,SystemResetWarning,0824.5,4.99,000.00,019.4,018.7,000.0,027.8,020.6,14.6,0001.5,0012.12,0007.08,0006.52
2024-01-04 14:55:00,SystemResetWarning,0824.5,5.00,000.00,019.4,018.6,000.0,027.8,020.5,14.6,0001.3,0012.39,0007.09,0006.51
2024-01-04 14:56:00,SystemResetWarning,0824.6,5.00,000.00,019.3,018.6,000.0,027.8,020.5,14.6,0001.5,0013.24,0007.08,0006.51
2024-01-04 14:57:00,SystemResetWarning,0824.5,5.00,000.00,019.3,018.6,000.0,027.7,020.5,14.6,0001.7,0013.41,0007.13,0006.51
2024-01-04 14:58:00,SystemResetWarning,0824.5,5.00,000.00,019.3,018.6,000.0,027.7,020.5,14.6,0002.0,0013.34,0007.13,0006.52
2024-01-04 14:59:00,SystemResetWarning,0824.5,5.00,000.00,019.3,018.5,000.0,027.7,020.4,14.7,0002.1,0013.23,0007.09,0006.50
